Starlink 31506

operational
NORAD ID: 59259 Int'l Des: 2024-050 Owner: SPXS Country: US Constellation: starlink
LEOCIRCULAR

About Starlink 31506

Description loading...

Live Position

Loading 3D Globe...

Upcoming Passes

Altitude History

Altitude vs Time

uPlot chart will show altitude changes over time

Two-Line Element Set

1 59259U 24050F 25307.66569588 .00000965 00000-0 44706-4 0 9996
2 59259 53.1595 46.3682 0001229 92.8895 267.2246 15.30191518 91254
Epoch: Nov 3, 2025 • Age: 19 hours

Current Status

Altitude 477.8 km
Velocity 7.63 km/s
Sub-Earth Point 38.68°N, 28.18°W
Launch Date Mar 19, 2024
Age 1.6 years
Type internet

Technical Details

Classification Payload
Mass 730.00 kg
Dry Mass 700.00 kg
Total Mass 730.00 kg
Length 0.30 m
Diameter 4.10 m
Span 29.00 m
Shape Box + pan
Manufacturer SPXS
Bus Type Starlink V2M
Phase Status In Orbit
Owner/State SPXS/US

Large Constellations

Loading constellations...